Stations météo

réclame
Mon MeteoGroup
Sevilla/San Pablo, Espagne (8391): Température de l'air & dewpoint: 08.08.2018 23:00:00 - 14.08.2018 23:00:00 (CEST)Sevilla/San Pablo, Espagne (8391): Vitesse du vent: 08.08.2018 23:00:00 - 14.08.2018 23:00:00 (CEST)Sevilla/San Pablo, Espagne (8391): Direction du vent: 08.08.2018 23:00:00 - 14.08.2018 23:00:00 (CEST)Sevilla/San Pablo, Espagne (8391): reduced air pressure: 08.08.2018 23:00:00 - 14.08.2018 23:00:00 (CEST)Sevilla/San Pablo, Espagne (8391): visibility: 08.08.2018 23:00:00 - 14.08.2018 23:00:00 (CEST)
Date & Time tt [°C] td [°C] ff [km/h] ff [knt] dd ppp [hPa] vv [km]
14.08.2018 23:00:00 23,8 15,8 24 13 SW 1015,9 30
14.08.2018 22:00:00 27,0 11,5 18 10 SSW 1015,1 -
14.08.2018 21:00:00 30,1 10,1 16 9 SSW 1014,3 -
14.08.2018 20:00:00 32,0 11,7 26 14 SW 1014,0 30
14.08.2018 19:00:00 33,3 11,8 24 13 SW 1014,3 -
14.08.2018 18:00:00 34,4 11,5 18 10 SW 1014,6 -
14.08.2018 17:00:00 34,9 13,7 15 8 WSW 1014,9 30
14.08.2018 16:00:00 34,4 11,5 11 6 W 1015,3 -
14.08.2018 15:00:00 32,8 14,5 13 7 SW 1016,0 -
14.08.2018 14:00:00 31,1 17,0 13 7 SW 1016,5 30
14.08.2018 13:00:00 29,2 18,6 8 4 WSW 1017,0 -
14.08.2018 12:00:00 - - - - - - -
14.08.2018 11:00:00 23,0 19,3 9 5 SSW 1017,2 9
14.08.2018 10:00:00 20,9 19,2 13 7 SSW 1016,9 -
14.08.2018 09:00:00 20,6 18,8 15 8 SW 1016,3 -
14.08.2018 08:00:00 19,6 17,9 8 4 SW 1015,8 30
14.08.2018 07:00:00 19,6 17,0 5 3 SW 1015,3 -
14.08.2018 06:00:00 20,2 16,5 2 1 SW 1014,7 -
14.08.2018 05:00:00 20,3 16,1 5 3 SW 1014,9 30
14.08.2018 04:00:00 21,4 16,2 5 3 SSW 1015,0 -
14.08.2018 03:00:00 22,3 16,2 9 5 S 1014,9 -
14.08.2018 02:00:00 22,2 15,8 8 4 SSW 1014,7 30
14.08.2018 01:00:00 22,9 15,3 11 6 S 1014,4 -
14.08.2018 00:00:00 23,8 15,3 13 7 SSW 1014,2 -
13.08.2018 23:00:00 25,1 15,1 15 8 SSW 1013,9 30
13.08.2018 22:00:00 26,2 16,2 18 10 SW 1013,1 -
13.08.2018 21:00:00 28,4 16,7 26 14 SW 1012,4 -
13.08.2018 20:00:00 31,8 13,5 29 16 SW 1011,9 30
13.08.2018 19:00:00 33,7 13,2 29 16 SSW 1011,8 -
13.08.2018 18:00:00 34,7 11,8 29 16 SW 1012,1 -
13.08.2018 17:00:00 34,9 14,2 21 11 SSW 1012,6 30
13.08.2018 16:00:00 34,8 14,0 18 10 SW 1013,3 -
13.08.2018 15:00:00 34,0 14,1 13 7 WSW 1013,9 -
13.08.2018 14:00:00 32,4 15,0 15 8 SW 1014,5 30
13.08.2018 13:00:00 31,7 15,1 9 5 SW 1015,1 -
13.08.2018 12:00:00 30,2 17,6 8 4 WSW 1015,4 -
13.08.2018 11:00:00 27,9 18,8 5 3 S 1015,3 30
13.08.2018 10:00:00 25,9 19,8 4 2 SE 1015,1 -
13.08.2018 09:00:00 23,3 20,6 4 2 W 1014,9 -
13.08.2018 08:00:00 21,7 20,2 8 4 SW 1014,6 9
13.08.2018 07:00:00 21,9 20,2 9 5 SSW 1013,9 -
13.08.2018 06:00:00 22,3 20,6 9 5 SW 1013,8 -
13.08.2018 05:00:00 22,7 20,6 4 2 S 1013,8 30
13.08.2018 04:00:00 23,3 21,0 11 6 SW 1014,1 -
13.08.2018 03:00:00 23,6 20,9 13 7 SSW 1014,2 -
13.08.2018 02:00:00 24,2 20,3 11 6 SSW 1014,4 30
13.08.2018 01:00:00 24,8 20,3 15 8 S 1014,5 -
13.08.2018 00:00:00 26,0 19,5 13 7 SSW 1014,4 -
12.08.2018 23:00:00 27,5 20,1 16 9 SSW 1014,0 30
12.08.2018 22:00:00 30,0 18,8 13 7 SW 1013,1 -
12.08.2018 21:00:00 31,9 17,5 22 12 SW 1012,5 -
12.08.2018 20:00:00 33,4 18,4 31 17 SW 1012,2 30
12.08.2018 19:00:00 34,9 18,9 28 15 SW 1012,4 -
12.08.2018 18:00:00 37,0 14,3 8 4 WSW 1012,6 -
12.08.2018 17:00:00 36,3 15,0 13 7 WSW 1013,2 30
12.08.2018 16:00:00 36,0 15,3 13 7 SW 1013,9 -
12.08.2018 15:00:00 35,3 16,6 13 7 SW 1014,6 -
12.08.2018 14:00:00 34,4 17,0 8 4 W 1015,2 30
12.08.2018 13:00:00 33,6 18,5 4 2 NW 1015,8 -
12.08.2018 12:00:00 31,3 19,0 5 3 N 1016,2 -
12.08.2018 11:00:00 29,4 19,1 5 3 NW 1016,2 30
12.08.2018 10:00:00 28,3 19,2 0 0 N 1016,1 -
12.08.2018 09:00:00 25,6 20,3 8 4 SE 1016,2 -
12.08.2018 08:00:00 23,7 20,0 8 4 S 1015,5 20
12.08.2018 07:00:00 23,7 19,6 5 3 SE 1015,3 -
12.08.2018 06:00:00 24,0 20,1 8 4 S 1015,4 -
12.08.2018 05:00:00 25,2 20,2 8 4 SSW 1015,4 30
12.08.2018 04:00:00 25,6 20,2 8 4 SSW 1015,5 -
12.08.2018 03:00:00 26,0 20,3 13 7 S 1015,7 -
12.08.2018 02:00:00 27,1 19,7 11 6 S 1016,4 30
12.08.2018 01:00:00 28,6 19,8 4 2 SW 1016,3 -
12.08.2018 00:00:00 29,8 19,8 15 8 WSW 1016,0 -
11.08.2018 23:00:00 30,3 20,0 13 7 SW 1015,8 30
11.08.2018 22:00:00 31,7 19,7 16 9 SW 1015,1 -
11.08.2018 21:00:00 33,6 18,9 21 11 SW 1014,4 -
11.08.2018 20:00:00 35,9 17,1 16 9 SW 1014,1 30
11.08.2018 19:00:00 37,3 14,6 13 7 SW 1014,4 -
11.08.2018 18:00:00 38,1 13,4 13 7 WSW 1014,7 -
11.08.2018 17:00:00 37,8 12,6 8 4 SW 1015,3 30
11.08.2018 16:00:00 37,3 12,0 9 5 S 1016,1 -
11.08.2018 15:00:00 36,5 12,2 5 3 SSE 1016,7 -
11.08.2018 14:00:00 35,6 12,7 11 6 SSW 1017,3 30
11.08.2018 13:00:00 34,6 13,0 9 5 S 1017,8 -
11.08.2018 12:00:00 32,5 13,8 11 6 SE 1018,4 -
11.08.2018 11:00:00 30,4 14,3 8 4 ENE 1018,8 30
11.08.2018 10:00:00 27,0 12,2 9 5 NE 1018,8 -
11.08.2018 09:00:00 23,9 11,9 8 4 NNE 1018,6 -
11.08.2018 08:00:00 21,6 12,7 0 0 N 1018,4 30
11.08.2018 07:00:00 22,2 12,4 4 2 NE 1017,9 -
11.08.2018 06:00:00 22,4 12,3 11 6 S 1017,8 -
11.08.2018 05:00:00 22,5 12,4 0 0 N 1018,0 30
11.08.2018 04:00:00 23,2 12,5 0 0 N 1018,0 -
11.08.2018 03:00:00 24,0 12,5 0 0 N 1018,3 -
11.08.2018 02:00:00 24,7 12,3 15 8 S 1018,7 30
11.08.2018 01:00:00 26,3 10,4 13 7 S 1018,3 -
11.08.2018 00:00:00 28,7 10,4 8 4 SSW 1018,0 -
10.08.2018 23:00:00 30,5 11,0 9 5 SW 1017,4 30
10.08.2018 22:00:00 32,0 10,1 15 8 SW 1016,5 -
10.08.2018 21:00:00 34,1 8,8 13 7 SW 1015,6 -
10.08.2018 20:00:00 35,9 9,4 13 7 SW 1015,3 30
10.08.2018 19:00:00 37,2 5,2 11 6 W 1015,4 -
10.08.2018 18:00:00 37,1 4,1 9 5 NW 1015,6 -
10.08.2018 17:00:00 37,2 4,2 9 5 NW 1015,8 30
10.08.2018 16:00:00 36,4 4,6 9 5 ESE 1016,1 -
10.08.2018 15:00:00 36,1 4,9 9 5 NE 1016,7 -
10.08.2018 14:00:00 35,4 3,8 8 4 ENE 1017,0 30
10.08.2018 13:00:00 33,3 5,8 11 6 NE 1017,2 -
10.08.2018 12:00:00 31,6 6,8 9 5 ENE 1017,6 -
10.08.2018 11:00:00 28,6 9,4 9 5 ENE 1017,6 30
10.08.2018 10:00:00 25,8 8,7 11 6 NE 1017,6 -
10.08.2018 09:00:00 22,2 14,1 5 3 SE 1017,5 -
10.08.2018 08:00:00 18,0 13,9 0 0 N 1017,3 30
10.08.2018 07:00:00 17,7 13,4 8 4 SE 1017,1 -
10.08.2018 06:00:00 18,2 13,9 4 2 E 1016,8 -
10.08.2018 05:00:00 19,1 14,6 0 0 N 1016,7 30
10.08.2018 04:00:00 20,3 14,9 4 2 S 1016,4 -
10.08.2018 03:00:00 21,3 15,2 5 3 S 1016,5 -
10.08.2018 02:00:00 21,3 15,4 13 7 S 1016,7 30
10.08.2018 01:00:00 22,5 15,6 11 6 S 1016,4 -
10.08.2018 00:00:00 24,6 13,5 11 6 SSW 1016,1 -
09.08.2018 23:00:00 26,1 13,2 9 5 SSW 1015,8 30
09.08.2018 22:00:00 27,7 13,6 13 7 SSW 1014,9 -
09.08.2018 21:00:00 29,7 12,2 22 12 SW 1014,2 -
09.08.2018 20:00:00 32,0 12,8 22 12 SW 1013,9 30
09.08.2018 19:00:00 33,7 12,1 11 6 SW 1014,0 -
09.08.2018 18:00:00 33,9 11,1 11 6 WNW 1014,3 -
09.08.2018 17:00:00 33,9 10,5 8 4 WSW 1014,9 30
09.08.2018 16:00:00 33,0 10,4 11 6 WNW 1015,5 -
09.08.2018 15:00:00 31,6 9,9 9 5 WNW 1015,9 -
09.08.2018 14:00:00 30,7 10,7 9 5 SW 1016,2 30
09.08.2018 13:00:00 29,0 12,4 8 4 NW 1016,4 -
09.08.2018 12:00:00 26,8 13,5 8 4 NW 1016,7 -
09.08.2018 11:00:00 25,4 14,2 5 3 NNE 1016,5 30
09.08.2018 10:00:00 23,1 14,4 8 4 N 1016,3 -
09.08.2018 09:00:00 21,1 15,0 0 0 N 1016,2 -
09.08.2018 08:00:00 17,8 14,5 4 2 SE 1015,8 30
09.08.2018 07:00:00 18,8 15,1 0 0 N 1015,1 -
09.08.2018 06:00:00 19,6 15,4 5 3 S 1014,5 -
09.08.2018 05:00:00 19,8 15,4 8 4 S 1014,1 30
09.08.2018 04:00:00 20,2 15,6 11 6 S 1013,9 -
09.08.2018 03:00:00 21,5 15,1 9 5 S 1013,9 -
09.08.2018 02:00:00 22,3 15,3 5 3 S 1013,7 30
09.08.2018 01:00:00 23,6 14,9 13 7 SSW 1013,7 -
09.08.2018 00:00:00 24,4 14,3 16 9 SSW 1013,3 -
08.08.2018 23:00:00 25,2 14,0 16 9 SSW 1012,8 30

tt = Température de l'air
td = dewpoint
ff = Vitesse du vent
dd = Direction du vent
ppp = reduced air pressure
vv = visibility

stations d'obs. à proximité